Istanbul, Turkey

1:34 AM +03 on March 27, 2017 (GMT +0300)
Ataturk

Weather History for LTBA - April, 2013

Change the Weather History Date:

Monday, April 15, 2013

  Actual Average Record
Temperature  
Mean Temperature 53 °F -  
Max Temperature 57 °F 64 °F 71 °F (2002)
Min Temperature 49 °F 50 °F 39 °F (1997)
Degree Days  
Heating Degree Days 12    
Growing Degree Days 3 (Base 50)    
Moisture  
Dew Point 46 °F    
Average Humidity 79    
Maximum Humidity 100    
Minimum Humidity 63    
Precipitation  
Precipitation 0.03 in - - ()
Sea Level Pressure  
Sea Level Pressure 30.05 in    
Wind  
Wind Speed 11 mph ()    
Max Wind Speed 20 mph    
Max Gust Speed 31 mph    
Visibility 5.1 miles    
Events Rain    
Averages and records for this station are not official NWS values.
T = Trace of Precipitation, MM = Missing Value Source: Averaged Metar Reports

Daily Weather History Graph

Daily Weather History Graph

Search for Another Location

Airport or City:

Trip Planner

Search our weather history database for the weather conditions in past years. The results will help you decide how hot, cold, wet, or windy it might be!

Date:

Astronomy

Apr. 15, 2013 Rise Set
Actual Time 6:25 AM EEST 7:44 PM EEST
Civil Twilight 5:57 AM EEST 8:12 PM EEST
Nautical Twilight 5:23 AM EEST 8:47 PM EEST
Astronomical Twilight 4:47 AM EEST 9:23 PM EEST
Moon 9:33 AM EEST (4/15) No Moon Set
Length of Visible Light 14h 15m
Length of Day
13h 18m
Waxing Crescent, 22% of the Moon is Illuminated
Apr 15
Waxing Crescent
Apr 18
First Quarter
Apr 25
Full
May 2
Last Quarter
May 10
New

Hourly Weather History & Observations

Time (EEST) Temp. Dew Point Humidity Pressure Visibility Wind Dir Wind Speed Gust Speed Precip Events Conditions
12:20 AM 51.8 °F 44.6 °F 76% 30.12 in 6.2 mi North 10.4 mph - N/A   Mostly Cloudy
12:50 AM 51.8 °F 44.6 °F 76% 30.12 in 6.2 mi NNE 10.4 mph - N/A   Mostly Cloudy
1:20 AM 53.6 °F 44.6 °F 72% 30.12 in 6.2 mi Variable 6.9 mph - N/A   Mostly Cloudy
1:50 AM 50.0 °F 44.6 °F 82% 30.12 in 6.2 mi NNE 9.2 mph - N/A   Mostly Cloudy
2:20 AM 50.0 °F 44.6 °F 82% 30.12 in 6.2 mi NNE 10.4 mph - N/A   Mostly Cloudy
2:50 AM 50.0 °F 44.6 °F 82% 30.09 in 6.2 mi NNE 12.7 mph - N/A   Mostly Cloudy
3:00 AM 50 °F 44 °F 73% 30.12 in 6 mi NNE 12.7 mph - -   Mostly Cloudy
3:20 AM 51.8 °F 44.6 °F 76% 30.09 in 6.2 mi NNE 8.1 mph - N/A   Mostly Cloudy
3:50 AM 50.0 °F 44.6 °F 82% 30.09 in 6.2 mi NNE 9.2 mph - N/A   Mostly Cloudy
4:20 AM 50.0 °F 44.6 °F 82% 30.09 in 6.2 mi NNE 12.7 mph - N/A   Mostly Cloudy
4:50 AM 50.0 °F 44.6 °F 82% 30.09 in 6.2 mi NNE 9.2 mph - N/A   Mostly Cloudy
5:20 AM 50.0 °F 44.6 °F 82% 30.06 in 6.2 mi NNE 8.1 mph - N/A   Mostly Cloudy
5:50 AM 50.0 °F 44.6 °F 82% 30.06 in 6.2 mi NNE 10.4 mph - N/A   Mostly Cloudy
6:20 AM 50.0 °F 44.6 °F 82% 30.06 in 6.2 mi NNE 9.2 mph - N/A   Mostly Cloudy
6:50 AM 51.8 °F 44.6 °F 76% 30.06 in 6.2 mi NNE 8.1 mph - N/A   Mostly Cloudy
7:20 AM 51.8 °F 44.6 °F 76% 30.06 in 6.2 mi NNE 8.1 mph - N/A   Mostly Cloudy
7:50 AM 51.8 °F 44.6 °F 76% 30.06 in 6.2 mi NNE 8.1 mph - N/A   Mostly Cloudy
8:20 AM 51.8 °F 44.6 °F 76% 30.06 in 6.2 mi NNE 10.4 mph - N/A   Mostly Cloudy
8:50 AM 51.8 °F 44.6 °F 76% 30.06 in 6.2 mi NNE 9.2 mph - N/A   Mostly Cloudy
9:00 AM 52 °F 44 °F 67% 30.08 in 6 mi NNE 9.2 mph - -   Mostly Cloudy
9:20 AM 53.6 °F 46.4 °F 77% 30.06 in 6.2 mi NNE 10.4 mph - N/A   Mostly Cloudy
9:50 AM 53.6 °F 44.6 °F 72% 30.06 in 6.2 mi NNE 9.2 mph - N/A   Mostly Cloudy
10:20 AM 53.6 °F 44.6 °F 72% 30.06 in 6.2 mi NNE 13.8 mph - N/A   Mostly Cloudy
10:50 AM 55.4 °F 44.6 °F 67% 30.06 in 6.2 mi NNE 12.7 mph - N/A   Mostly Cloudy
11:20 AM 55.4 °F 44.6 °F 67% 30.06 in 6.2 mi NNE 11.5 mph - N/A   Mostly Cloudy
11:50 AM 55.4 °F 44.6 °F 67% 30.04 in 6.2 mi NNE 16.1 mph - N/A   Mostly Cloudy
12:20 PM 57.2 °F 44.6 °F 63% 30.04 in 6.2 mi NNE 16.1 mph - N/A   Mostly Cloudy
12:50 PM 55.4 °F 42.8 °F 63% 30.04 in 6.2 mi NE 18.4 mph 31.1 mph N/A   Mostly Cloudy
1:20 PM 55.4 °F 44.6 °F 67% 30.04 in 6.2 mi NNE 18.4 mph 29.9 mph N/A   Mostly Cloudy
1:50 PM 53.6 °F 44.6 °F 72% 30.04 in 6.2 mi North 16.1 mph - N/A   Mostly Cloudy
2:20 PM 53.6 °F 44.6 °F 72% 30.04 in 6.2 mi North 16.1 mph - N/A   Mostly Cloudy
2:50 PM 53.6 °F 46.4 °F 77% 30.04 in 5.0 mi North 16.1 mph - N/A Rain Light Rain Showers
3:00 PM 53 °F 46 °F 70% 30.05 in 5 mi North 16.1 mph - - Rain Light Rain Showers
3:20 PM 51.8 °F 46.4 °F 82% 30.04 in 5.0 mi North 17.3 mph - N/A Rain Light Rain Showers
3:50 PM 51.8 °F 46.4 °F 82% 30.01 in 3.7 mi North 19.6 mph - N/A Rain Light Rain Showers
4:20 PM 51.8 °F 50.0 °F 94% 30.01 in 3.7 mi North 16.1 mph - N/A Rain Light Rain Showers
4:31 PM 50.0 °F 48.2 °F 94% 30.01 in 1.2 mi North 18.4 mph - N/A Rain Light Rain Showers
4:50 PM 50.0 °F 50.0 °F 100% 30.01 in 1.2 mi North 17.3 mph - N/A Rain Light Rain Showers
5:20 PM 51.8 °F 50.0 °F 94% 30.01 in 1.6 mi North 16.1 mph - N/A Rain Light Rain Showers
5:50 PM 51.8 °F 48.2 °F 88% 30.01 in 2.5 mi North 16.1 mph - N/A Rain Light Rain Showers
6:20 PM 51.8 °F 48.2 °F 88% 30.01 in 2.5 mi North 17.3 mph - N/A Rain Light Rain Showers
6:50 PM 51.8 °F 48.2 °F 88% 30.01 in 3.7 mi NNE 18.4 mph - N/A Rain Light Rain Showers
7:20 PM 51.8 °F 48.2 °F 88% 30.01 in 4.3 mi NNE 16.1 mph 27.6 mph N/A Rain Light Rain Showers
7:50 PM 51.8 °F 46.4 °F 82% 30.01 in 3.7 mi NNE 18.4 mph 29.9 mph N/A Rain Light Rain Showers
8:20 PM 51.8 °F 46.4 °F 82% 30.01 in 4.3 mi NNE 17.3 mph - N/A Rain Light Rain Showers
8:50 PM 51.8 °F 46.4 °F 82% 30.01 in 3.7 mi NNE 16.1 mph 28.8 mph N/A Rain Light Rain Showers
9:00 PM 52 °F 46 °F 72% 30.04 in 4 mi NNE 16.1 mph - - Rain Light Rain Showers
9:20 PM 51.8 °F 46.4 °F 82% 30.04 in 4.3 mi NNE 16.1 mph - N/A Rain Light Rain Showers
9:50 PM 51.8 °F 46.4 °F 82% 30.01 in 4.3 mi NNE 15.0 mph - N/A Rain Light Rain Showers
10:20 PM 50.0 °F 46.4 °F 87% 30.01 in 4.3 mi NNE 13.8 mph - N/A Rain Light Rain Showers
10:50 PM 51.8 °F 46.4 °F 82% 30.01 in 4.3 mi NNE 13.8 mph - N/A Rain Light Rain Showers
11:20 PM 50.0 °F 44.6 °F 82% 30.01 in 4.3 mi NNE 13.8 mph - N/A Rain Light Rain Showers
11:50 PM 50.0 °F 46.4 °F 87% 30.01 in 4.3 mi NNE 10.4 mph - N/A Rain Light Rain Showers